When you browse on this site, cookies collect data to enhance your experience and personalize the content and advertising you see.
Visit our Privacy Policy to learn more. By continuing to use the site, you agree to this use of cookies and data.
  • In Switzerland
  • List of Countries
  • For 7 days
  • Water Temperature
  • Satellite Maps
  • Weather Map
  • Weather Widgets
  • user-avatar
    Login

    Hourly Weather Changchun

    Today, 17 June, Monday

    Time Temperature Precipitation Wind Pressure Humidity
    00:00 +13°C° 0 mm 1 mps 738 mmHg 61%
    01:00 +13°C° 0 mm 1 mps 738 mmHg 63%
    02:00 +11°C° 0 mm 0 mps 738 mmHg 64%
    03:00 +11°C° 0 mm 0 mps 738 mmHg 65%
    04:00 +11°C° 0 mm 0 mps 738 mmHg 65%
    05:00 +11°C° 0 mm 0 mps 739 mmHg 66%
    06:00 +13°C° 0 mm 0 mps 739 mmHg 59%
    07:00 +18°C° 0 mm 1 mps 738 mmHg 52%
    08:00 +20°C° 0 mm 1 mps 738 mmHg 45%
    09:00 +21°C° 0 mm 1 mps 738 mmHg 40%
    10:00 +22°C° 0 mm 1 mps 738 mmHg 35%
    11:00 +24°C° 0 mm 1 mps 738 mmHg 30%
    12:00 +24°C° 0 mm 1 mps 738 mmHg 29%
    13:00 +25°C° 0 mm 1 mps 737 mmHg 28%
    14:00 +26°C° 0 mm 1 mps 737 mmHg 27%
    15:00 +26°C° 0 mm 1 mps 737 mmHg 28%
    16:00 +26°C° 0 mm 1 mps 737 mmHg 28%
    17:00 +25°C° 0 mm 1 mps 737 mmHg 29%
    18:00 +23°C° 0 mm 2 mps 736 mmHg 33%
    19:00 +21°C° 0 mm 2 mps 736 mmHg 37%
    20:00 +19°C° 0 mm 2 mps 736 mmHg 41%
    21:00 +18°C° 0 mm 2 mps 736 mmHg 43%
    22:00 +17°C° 0 mm 2 mps 737 mmHg 44%
    23:00 +17°C° 0 mm 2 mps 737 mmHg 45%

    Tomorrow, 18 June, Tuesday

    Time Temperature Precipitation Wind Pressure Humidity
    00:00 +16°C° 0 mm 2 mps 737 mmHg 46%
    01:00 +16°C° 0 mm 2 mps 736 mmHg 47%
    02:00 +16°C° 0 mm 2 mps 736 mmHg 48%
    03:00 +16°C° 0 mm 2 mps 736 mmHg 51%
    04:00 +15°C° 0 mm 2 mps 736 mmHg 53%
    05:00 +15°C° 0 mm 2 mps 736 mmHg 56%
    06:00 +18°C° 0 mm 2 mps 736 mmHg 51%
    07:00 +20°C° 0 mm 2 mps 737 mmHg 46%
    08:00 +23°C° 0 mm 2 mps 737 mmHg 41%
    09:00 +25°C° 0 mm 2 mps 737 mmHg 38%
    10:00 +26°C° 0 mm 2 mps 736 mmHg 36%
    11:00 +27°C° 0 mm 3 mps 736 mmHg 33%
    12:00 +27°C° 0 mm 3 mps 736 mmHg 36%
    13:00 +27°C° 0 mm 4 mps 736 mmHg 39%
    14:00 +27°C° 0 mm 4 mps 735 mmHg 42%
    15:00 +27°C° 0 mm 4 mps 735 mmHg 39%
    16:00 +27°C° 0 mm 4 mps 735 mmHg 37%
    17:00 +27°C° 0 mm 4 mps 735 mmHg 35%
    18:00 +25°C° 0 mm 3 mps 735 mmHg 40%
    19:00 +22°C° 0 mm 3 mps 736 mmHg 45%
    20:00 +20°C° 0 mm 3 mps 736 mmHg 49%
    21:00 +19°C° 0 mm 2 mps 736 mmHg 52%
    22:00 +20°C° 0 mm 1 mps 736 mmHg 54%
    23:00 +19°C° 0 mm 1 mps 736 mmHg 56%

    Day after tomorrow, 19 June, Wednesday

    Time Temperature Precipitation Wind Pressure Humidity
    00:00 +18°C° 0 mm 1 mps 736 mmHg 57%
    01:00 +18°C° 0 mm 1 mps 736 mmHg 58%
    02:00 +18°C° 0 mm 1 mps 736 mmHg 60%
    03:00 +17°C° 0 mm 2 mps 736 mmHg 61%
    04:00 +17°C° 0 mm 2 mps 736 mmHg 62%
    05:00 +17°C° 0 mm 2 mps 735 mmHg 62%
    06:00 +19°C° 0 mm 3 mps 736 mmHg 56%
    07:00 +21°C° 0 mm 3 mps 736 mmHg 50%
    08:00 +25°C° 0 mm 4 mps 736 mmHg 43%
    09:00 +26°C° 0 mm 4 mps 735 mmHg 42%
    10:00 +28°C° 0 mm 5 mps 734 mmHg 40%
    11:00 +30°C° 0 mm 6 mps 734 mmHg 39%
    12:00 +32°C° 0 mm 6 mps 733 mmHg 37%
    13:00 +33°C° 0 mm 6 mps 733 mmHg 36%
    14:00 +33°C° 0 mm 6 mps 732 mmHg 35%
    15:00 +33°C° 0 mm 6 mps 732 mmHg 34%
    16:00 +33°C° 0 mm 5 mps 731 mmHg 33%
    17:00 +33°C° 0 mm 4 mps 731 mmHg 32%
    18:00 +30°C° 0 mm 4 mps 731 mmHg 39%
    19:00 +28°C° 0 mm 4 mps 731 mmHg 46%
    20:00 +26°C° 0 mm 4 mps 731 mmHg 53%
    21:00 +25°C° 0.1 mm 3 mps 731 mmHg 57%
    22:00 +24°C° 0.1 mm 2 mps 731 mmHg 61%
    23:00 +23°C° 0.1 mm 2 mps 731 mmHg 65%

    20 June, Thursday

    Time Temperature Precipitation Wind Pressure Humidity
    00:00 +21°C° 0 mm 2 mps 731 mmHg 68%
    01:00 +21°C° 0 mm 2 mps 731 mmHg 71%
    02:00 +20°C° 0 mm 2 mps 731 mmHg 74%
    03:00 +20°C° 0.3 mm 2 mps 731 mmHg 78%
    04:00 +19°C° 0.3 mm 2 mps 731 mmHg 82%
    05:00 +20°C° 0.3 mm 1 mps 731 mmHg 86%
    06:00 +19°C° 0.2 mm 2 mps 731 mmHg 83%
    07:00 +20°C° 0.2 mm 2 mps 732 mmHg 79%
    08:00 +21°C° 0.2 mm 3 mps 733 mmHg 75%
    09:00 +22°C° 0 mm 3 mps 733 mmHg 63%
    10:00 +23°C° 0 mm 4 mps 733 mmHg 51%
    11:00 +26°C° 0 mm 5 mps 733 mmHg 38%
    12:00 +26°C° 0 mm 6 mps 733 mmHg 38%
    13:00 +26°C° 0 mm 6 mps 733 mmHg 37%
    14:00 +26°C° 0 mm 7 mps 733 mmHg 37%
    15:00 +24°C° 0 mm 7 mps 734 mmHg 38%
    16:00 +23°C° 0 mm 7 mps 734 mmHg 40%
    17:00 +22°C° 0 mm 6 mps 734 mmHg 42%
    18:00 +20°C° 0 mm 5 mps 734 mmHg 46%
    19:00 +19°C° 0 mm 4 mps 735 mmHg 50%
    20:00 +17°C° 0 mm 3 mps 735 mmHg 54%
    21:00 +16°C° 0 mm 2 mps 736 mmHg 58%
    22:00 +16°C° 0 mm 2 mps 736 mmHg 62%
    23:00 +15°C° 0 mm 2 mps 736 mmHg 65%

    21 June, Friday

    Time Temperature Precipitation Wind Pressure Humidity
    00:00 +15°C° 0 mm 2 mps 736 mmHg 67%
    01:00 +14°C° 0 mm 2 mps 736 mmHg 69%
    02:00 +14°C° 0 mm 2 mps 736 mmHg 70%
    03:00 +14°C° 0 mm 2 mps 736 mmHg 70%
    04:00 +14°C° 0 mm 2 mps 736 mmHg 70%
    05:00 +15°C° 0 mm 2 mps 736 mmHg 70%
    06:00 +16°C° 0 mm 3 mps 736 mmHg 67%
    07:00 +18°C° 0 mm 3 mps 737 mmHg 64%
    08:00 +19°C° 0 mm 4 mps 737 mmHg 61%
    09:00 +20°C° 0.1 mm 4 mps 737 mmHg 62%
    10:00 +20°C° 0.1 mm 4 mps 736 mmHg 62%
    11:00 +21°C° 0.1 mm 4 mps 736 mmHg 62%
    12:00 +22°C° 0.1 mm 4 mps 736 mmHg 59%
    13:00 +23°C° 0.1 mm 4 mps 736 mmHg 55%
    14:00 +25°C° 0.1 mm 4 mps 736 mmHg 51%
    15:00 +23°C° 0.2 mm 5 mps 736 mmHg 54%
    16:00 +23°C° 0.2 mm 5 mps 735 mmHg 58%
    17:00 +22°C° 0.2 mm 5 mps 735 mmHg 61%
    18:00 +21°C° 0 mm 4 mps 735 mmHg 67%
    19:00 +19°C° 0 mm 4 mps 736 mmHg 73%
    20:00 +18°C° 0 mm 3 mps 736 mmHg 78%
    21:00 +17°C° 0 mm 3 mps 736 mmHg 82%
    22:00 +16°C° 0 mm 3 mps 736 mmHg 86%
    23:00 +15°C° 0 mm 2 mps 736 mmHg 90%

    22 June, Saturday

    Time Temperature Precipitation Wind Pressure Humidity
    00:00 +15°C° 0 mm 2 mps 736 mmHg 91%
    01:00 +14°C° 0 mm 2 mps 736 mmHg 92%
    02:00 +14°C° 0 mm 2 mps 736 mmHg 93%
    03:00 +14°C° 0 mm 2 mps 736 mmHg 92%
    04:00 +14°C° 0 mm 2 mps 736 mmHg 92%
    05:00 +14°C° 0 mm 2 mps 736 mmHg 91%
    06:00 +16°C° 0 mm 3 mps 737 mmHg 81%
    07:00 +18°C° 0 mm 3 mps 737 mmHg 72%
    08:00 +21°C° 0 mm 4 mps 737 mmHg 62%
    09:00 +22°C° 0 mm 4 mps 737 mmHg 57%
    10:00 +25°C° 0 mm 4 mps 737 mmHg 51%
    11:00 +26°C° 0 mm 5 mps 736 mmHg 46%
    12:00 +27°C° 0 mm 5 mps 736 mmHg 44%
    13:00 +28°C° 0 mm 5 mps 736 mmHg 42%
    14:00 +28°C° 0 mm 5 mps 735 mmHg 40%
    15:00 +28°C° 0 mm 5 mps 735 mmHg 41%
    16:00 +28°C° 0 mm 4 mps 735 mmHg 42%
    17:00 +27°C° 0 mm 4 mps 735 mmHg 44%
    18:00 +25°C° 0 mm 4 mps 735 mmHg 53%
    19:00 +22°C° 0 mm 3 mps 735 mmHg 62%
    20:00 +20°C° 0 mm 3 mps 735 mmHg 71%
    21:00 +19°C° 0 mm 2 mps 735 mmHg 74%
    22:00 +18°C° 0 mm 2 mps 736 mmHg 77%
    23:00 +17°C° 0 mm 2 mps 736 mmHg 79%
    Show more